EZY68GL EGGP-EGNS

Flight info

Callsign EZY68GL
Flight time 0h 23m
Altitude 14000
Route WAL M146 LUSOD DCT IOM
Aircraft A319/M-SDE3FGHIRWY/LB1

Departure

Time 2026-04-26 12:56
Airport Liverpool John Lennon Airport (EGGP)

Arrival

Time 2026-04-26 13:19
Airport Isle of Man Airport (EGNS)
Time Latitude Longitude Altitude Speed Heading
2026-04-26 12:11 53.33642 -2.85956 91 ft 0 kts 355°
2026-04-26 12:47 53.33634 -2.85955 91 ft 4 kts 352°
2026-04-26 12:47 53.33608 -2.85944 91 ft 4 kts 324°
2026-04-26 12:48 53.33594 -2.85912 91 ft 3 kts 269°
2026-04-26 12:48 53.33594 -2.85900 91 ft 0 kts 266°
2026-04-26 12:50 53.33594 -2.85903 91 ft 1 kts 266°
2026-04-26 12:50 53.33589 -2.85928 90 ft 6 kts 244°
2026-04-26 12:51 53.33565 -2.85939 89 ft 0 kts 176°
2026-04-26 12:51 53.33557 -2.85937 89 ft 1 kts 174°
2026-04-26 12:51 53.33536 -2.85934 89 ft 7 kts 174°
2026-04-26 12:52 53.33493 -2.85954 90 ft 5 kts 234°
2026-04-26 12:52 53.33482 -2.85995 89 ft 4 kts 251°
2026-04-26 12:52 53.33473 -2.86132 89 ft 16 kts 265°
2026-04-26 12:52 53.33464 -2.86297 90 ft 13 kts 265°
2026-04-26 12:53 53.33459 -2.86434 89 ft 10 kts 265°
2026-04-26 12:53 53.33454 -2.86540 89 ft 8 kts 265°
2026-04-26 12:53 53.33450 -2.86608 89 ft 3 kts 263°
2026-04-26 12:53 53.33440 -2.86669 90 ft 8 kts 242°
2026-04-26 12:54 53.33406 -2.86718 89 ft 2 kts 211°
2026-04-26 12:54 53.33402 -2.86721 89 ft 2 kts 207°
2026-04-26 12:54 53.33373 -2.86730 91 ft 6 kts 180°
2026-04-26 12:54 53.33323 -2.86694 91 ft 6 kts 140°
2026-04-26 12:55 53.33290 -2.86610 91 ft 12 kts 98°
2026-04-26 12:55 53.33290 -2.86564 88 ft 0 kts 86°
2026-04-26 12:55 53.33291 -2.86554 88 ft 2 kts 85°
2026-04-26 12:55 53.33306 -2.86229 91 ft 68 kts 85°
2026-04-26 12:56 53.33360 -2.85027 92 ft 136 kts 86°
2026-04-26 12:56 53.33421 -2.83303 494 ft 152 kts 90°
2026-04-26 12:56 53.33510 -2.81510 1208 ft 157 kts 88°
2026-04-26 12:56 53.33722 -2.79649 1727 ft 174 kts 74°
2026-04-26 12:57 53.34371 -2.77855 2427 ft 187 kts 46°
2026-04-26 12:57 53.35437 -2.76669 3240 ft 193 kts 19°
2026-04-26 12:57 53.36738 -2.76330 4081 ft 187 kts 352°
2026-04-26 12:58 53.38826 -2.79023 4939 ft 219 kts 282°
2026-04-26 12:58 53.38816 -2.81577 5734 ft 223 kts 259°
2026-04-26 12:58 53.38713 -2.84216 6749 ft 229 kts 267°
2026-04-26 12:58 53.38761 -2.86910 7697 ft 233 kts 270°
2026-04-26 12:59 53.38845 -2.89634 8682 ft 235 kts 270°
2026-04-26 12:59 53.38925 -2.92385 9729 ft 238 kts 270°
2026-04-26 12:59 53.38989 -2.95169 10710 ft 241 kts 269°
2026-04-26 12:59 53.39039 -2.98003 11645 ft 244 kts 269°
2026-04-26 13:00 53.39077 -3.00832 12506 ft 247 kts 269°
2026-04-26 13:00 53.39107 -3.03727 13368 ft 250 kts 269°
2026-04-26 13:00 53.39135 -3.06664 14067 ft 256 kts 269°
2026-04-26 13:00 53.39284 -3.09646 14244 ft 257 kts 279°
2026-04-26 13:01 53.39760 -3.12547 14295 ft 261 kts 289°
2026-04-26 13:01 53.40633 -3.15477 14303 ft 299 kts 301°
2026-04-26 13:01 53.42013 -3.18267 14295 ft 318 kts 313°
2026-04-26 13:01 53.43569 -3.20893 14298 ft 322 kts 313°
2026-04-26 13:02 53.45150 -3.23571 14296 ft 323 kts 313°
2026-04-26 13:02 53.46724 -3.26245 14293 ft 323 kts 313°
2026-04-26 13:02 53.48302 -3.28939 14292 ft 323 kts 312°
2026-04-26 13:02 53.49880 -3.31642 14288 ft 323 kts 312°
2026-04-26 13:03 53.51454 -3.34341 14292 ft 323 kts 312°
2026-04-26 13:03 53.53024 -3.37037 14290 ft 323 kts 312°
2026-04-26 13:03 53.54595 -3.39739 14289 ft 323 kts 312°
2026-04-26 13:03 53.56147 -3.42406 14291 ft 323 kts 312°
2026-04-26 13:04 53.57702 -3.45128 14289 ft 322 kts 308°
2026-04-26 13:04 53.59030 -3.48148 14292 ft 321 kts 303°
2026-04-26 13:04 53.60320 -3.51225 14296 ft 321 kts 303°
2026-04-26 13:04 53.61615 -3.54298 14298 ft 321 kts 303°
2026-04-26 13:05 53.62911 -3.57371 14292 ft 321 kts 303°
2026-04-26 13:05 53.64209 -3.60443 14297 ft 321 kts 303°
2026-04-26 13:05 53.65486 -3.63472 14298 ft 321 kts 303°
2026-04-26 13:05 53.66778 -3.66545 14301 ft 321 kts 303°
2026-04-26 13:06 53.68064 -3.69618 14308 ft 321 kts 303°
2026-04-26 13:06 53.69348 -3.72695 14308 ft 321 kts 303°
2026-04-26 13:06 53.70635 -3.75782 14310 ft 320 kts 303°
2026-04-26 13:06 53.71918 -3.78869 14311 ft 320 kts 303°
2026-04-26 13:07 53.73197 -3.81950 14310 ft 320 kts 303°
2026-04-26 13:07 53.74479 -3.85038 14310 ft 320 kts 303°
2026-04-26 13:07 53.75746 -3.88091 14248 ft 313 kts 303°
2026-04-26 13:07 53.76989 -3.91085 13965 ft 308 kts 302°
2026-04-26 13:08 53.78196 -3.93998 13603 ft 306 kts 302°
2026-04-26 13:08 53.79416 -3.96942 13220 ft 304 kts 302°
2026-04-26 13:08 53.80628 -3.99872 12832 ft 303 kts 302°
2026-04-26 13:08 53.81831 -4.02783 12439 ft 301 kts 302°
2026-04-26 13:09 53.83033 -4.05691 12092 ft 299 kts 302°
2026-04-26 13:09 53.84198 -4.08513 11849 ft 292 kts 302°
2026-04-26 13:09 53.85358 -4.11336 11511 ft 290 kts 301°
2026-04-26 13:09 53.86509 -4.14146 11152 ft 289 kts 301°
2026-04-26 13:10 53.87652 -4.16940 10795 ft 288 kts 301°
2026-04-26 13:10 53.88792 -4.19729 10438 ft 287 kts 301°
2026-04-26 13:10 53.89913 -4.22472 10066 ft 286 kts 301°
2026-04-26 13:10 53.91046 -4.25245 9667 ft 285 kts 301°
2026-04-26 13:11 53.92174 -4.28003 9268 ft 283 kts 301°
2026-04-26 13:11 53.93293 -4.30744 8873 ft 282 kts 301°
2026-04-26 13:11 53.94313 -4.33559 8481 ft 278 kts 293°
2026-04-26 13:11 53.95164 -4.36492 8079 ft 276 kts 293°
2026-04-26 13:12 53.96015 -4.39409 7682 ft 274 kts 293°
2026-04-26 13:12 53.96859 -4.42304 7284 ft 273 kts 293°
2026-04-26 13:12 53.97688 -4.45152 6897 ft 271 kts 293°
2026-04-26 13:12 53.98520 -4.48014 6499 ft 269 kts 293°
2026-04-26 13:13 53.99188 -4.50961 6072 ft 265 kts 285°
2026-04-26 13:13 53.99738 -4.53931 5781 ft 259 kts 284°
2026-04-26 13:13 54.00262 -4.56832 5453 ft 255 kts 284°
2026-04-26 13:13 54.00767 -4.59703 5126 ft 250 kts 282°
2026-04-26 13:14 54.01145 -4.62529 4794 ft 245 kts 279°
2026-04-26 13:14 54.01489 -4.65344 4455 ft 242 kts 279°
2026-04-26 13:14 54.01826 -4.68123 4121 ft 238 kts 278°
2026-04-26 13:14 54.02066 -4.70895 3795 ft 235 kts 275°
2026-04-26 13:15 54.02260 -4.73645 3471 ft 232 kts 274°
2026-04-26 13:15 54.02448 -4.76367 3132 ft 230 kts 274°
2026-04-26 13:15 54.02622 -4.78897 2820 ft 226 kts 275°
2026-04-26 13:15 54.02856 -4.80601 2582 ft 223 kts 292°
2026-04-26 13:16 54.04290 -4.82952 2150 ft 222 kts 340°
2026-04-26 13:16 54.05758 -4.82821 1999 ft 210 kts 28°
2026-04-26 13:16 54.06648 -4.81107 1997 ft 190 kts 75°
2026-04-26 13:16 54.06885 -4.78992 2012 ft 177 kts 83°
2026-04-26 13:17 54.07252 -4.74808 1636 ft 179 kts 84°
2026-04-26 13:17 54.07389 -4.72834 1501 ft 156 kts 88°
2026-04-26 13:18 54.07483 -4.69338 841 ft 140 kts 88°
2026-04-26 13:18 54.07626 -4.67768 628 ft 131 kts 80°
2026-04-26 13:18 54.08016 -4.64862 236 ft 122 kts 78°
2026-04-26 13:19 54.08193 -4.63461 66 ft 120 kts 79°
2026-04-26 13:19 54.08346 -4.62261 41 ft 72 kts 78°
2026-04-26 13:19 54.08416 -4.61699 44 ft 39 kts 78°
2026-04-26 13:19 54.08465 -4.61438 41 ft 16 kts 28°
2026-04-26 13:20 54.08533 -4.61519 43 ft 13 kts 277°
2026-04-26 13:20 54.08543 -4.61668 42 ft 12 kts 276°
2026-04-26 13:20 54.08550 -4.61797 41 ft 12 kts 275°
2026-04-26 13:20 54.08544 -4.61942 45 ft 12 kts 259°
2026-04-26 13:21 54.08527 -4.62089 47 ft 14 kts 258°
2026-04-26 13:21 54.08511 -4.62222 49 ft 19 kts 259°
2026-04-26 13:21 54.08485 -4.62431 50 ft 14 kts 259°
2026-04-26 13:21 54.08457 -4.62647 45 ft 22 kts 257°
2026-04-26 13:22 54.08424 -4.62892 43 ft 17 kts 258°
2026-04-26 13:22 54.08446 -4.62991 43 ft 5 kts 340°
2026-04-26 13:22 54.08500 -4.63011 43 ft 15 kts 348°
2026-04-26 13:22 54.08605 -4.63084 46 ft 16 kts 314°
2026-04-26 13:23 54.08644 -4.63162 46 ft 0 kts 314°
2026-04-26 13:23 54.08654 -4.63220 46 ft 10 kts 252°
2026-04-26 13:23 54.08632 -4.63258 49 ft 0 kts 228°
2026-04-26 13:24 54.08632 -4.63260 46 ft 2 kts 233°
2026-04-26 13:24 54.08628 -4.63267 46 ft 0 kts 228°